TIME,DELAY(SENSOR),PRES,T(CTD),SAL,OXYGEN,RAWTEMP,T(OPTODE),TCPHASE,TURBIDITY,TURBIDITY_GAIN,FLUOR,BETA,CDOM,ED411.5,ED443.8,ED489.6,PAR,COMP,TILT,TILTY(TILT),CHECK
1341267198,6468,193.2599945068359400,5.3194999694824220,35.0004997253418000,359.9458007812500000,642.3681030273438000,5.2978291511535645,32.3071212768554700,16,3,48,120,62,2147637563,2147397430,2147288342,2148323615,3290,0,-4,12193
1341267260,6465,190.0399932861328000,5.3246998786926270,35.0007019042968750,359.6333007812500000,642.1547851562500000,5.3047451972961430,32.3133888244628900,16,3,50,131,62,2147637078,2147397037,2147288041,2148319473,2811,0,-4,6614
1341267322,6466,186.8099975585937500,5.3319997787475590,35.0009994506835940,359.6494140625000000,641.9215698242188000,5.3123040199279785,32.3086891174316400,16,3,50,115,62,2147635474,2147393169,2147284790,2148322207,2586,0,-4,6550
1341267384,6469,183.5500030517578000,5.3383998870849610,35.0013008117675800,359.7391967773437500,641.7100219726562000,5.3191599845886230,32.3019104003906250,15,3,49,120,62,2147639181,2147394587,2147285704,2148321028,2467,0,-4,26468
1341267446,6468,180.3500061035156200,5.3413000106811520,35.0012016296386700,359.7869873046875000,641.5767822265625000,5.3234791755676270,32.2982406616210940,16,3,50,121,62,2147636699,2147395140,2147285997,2148323062,2281,0,-4,1287
1341267508,6470,177.1799926757812500,5.3488998413085940,35.0021018981933600,359.7918090820312500,641.3723144531250000,5.3301091194152830,32.2944183349609400,16,3,49,149,62,2147635066,2147395327,2147288854,2148318399,2066,0,-4,26126
1341267570,6467,173.9799957275390600,5.3512001037597660,35.0021018981933600,359.8370056152344000,641.3162841796875000,5.3319230079650880,32.2917594909668000,16,3,50,132,62,2147636068,2147396722,2147286042,2148319058,1936,0,-4,12500
1341267632,6466,170.7799987792968800,5.3568000793457030,35.0022010803222660,359.8617858886719000,641.1599731445312000,5.3369879722595215,32.2884101867675800,15,3,50,126,62,2147632525,2147394870,2147285225,2148321224,1783,0,-4,22569
1341267693,6468,167.5800018310547000,5.3586001396179200,35.0024986267089840,359.7236938476562500,641.1115112304688000,5.3385601043701170,32.2919502258300800,16,3,48,118,62,2147636442,2147397068,2147286445,2148317471,1554,0,-4,4402
1341267754,6470,164.3899993896484400,5.3632998466491700,35.0023002624511700,359.6947937011719000,640.9724121093750000,5.3430671691894530,32.2901802062988300,16,3,50,130,62,2147636246,2147395716,2147283615,2148322267,1363,0,-4,27199
1341267817,6468,161.0800018310547000,5.3719000816345215,35.0032005310058600,359.7001037597656000,640.7106933593750000,5.3515491485595700,32.2855491638183600,13,3,50,129,62,2147635113,2147392287,2147287441,2148324091,1141,0,-4,41569
1341267878,6467,157.8800048828125000,5.3750000000000000,35.0033988952636700,359.6017150878906000,640.5756835937500000,5.3559231758117680,32.2863998413085940,16,3,49,125,62,2147635716,2147395405,2147287862,2148319437,848,0,-4,5105
1341267941,6466,154.4900054931640600,5.3765997886657715,35.0032005310058600,359.6546936035156000,640.5360717773438000,5.3572058677673340,32.2839698791503900,16,3,50,136,62,2147636009,2147394632,2147288497,2148319080,482,0,-4,15603
1341268002,6466,151.1699981689453000,5.3836998939514160,35.0028991699218750,359.4554138183594000,640.3447875976562000,5.3634028434753420,32.2868003845214840,16,3,49,122,62,2147638614,2147396863,2147289942,2148322989,3559,0,-4,26776
1341268065,6468,147.7599945068359400,5.3866000175476070,35.0031013488769500,359.2887878417969000,640.2291870117188000,5.3671488761901855,32.2902107238769500,16,3,50,130,62,2147637091,2147394459,2147287254,2148320227,3213,0,-4,9091
1341268126,6468,144.4400024414062500,5.3924999237060550,35.0036010742187500,359.1492919921875000,640.0761718750000000,5.3721070289611820,32.2919082641601560,16,3,50,125,62,2147637224,2147397161,2147291181,2148320991,2878,0,-4,6649
1341268189,6469,141.0500030517578000,5.3940000534057620,35.0033988952636700,359.2109985351562500,639.9733276367188000,5.3754391670227050,32.2881088256835940,16,3,50,126,62,2147638495,2147395679,2147287972,2148322061,2668,0,-4,16018
1341268250,6469,137.7899932861328000,5.4059000015258790,35.0032005310058600,358.9025878906250000,639.6641845703125000,5.3854517936706540,32.2927818298339840,16,3,52,131,62,2147638230,2147397695,2147291099,2148319555,2449,0,-4,23677
1341268313,6468,134.5200042724609400,5.4095001220703125,35.0037002563476560,358.7508850097656000,639.5325927734375000,5.3897151947021480,32.2952194213867200,16,3,50,119,62,2147636886,2147394847,2147291442,2148323857,2297,0,-4,52277
1341268374,6467,131.4499969482422000,5.4127998352050780,35.0037002563476560,358.5981140136719000,639.4334106445312000,5.3929271697998050,32.2983589172363300,15,3,51,124,62,2147634180,2147396553,2147294979,2148322390,2188,0,-4,14274
1341268437,6467,128.3699951171875000,5.4189000129699710,35.0037002563476560,358.5396118164062500,639.2280273437500000,5.3995800018310550,32.2968101501464840,13,3,50,159,62,2147635706,2147394582,2147295839,2148319446,2067,0,-4,37547
1341268498,6467,125.4899978637695300,5.4303002357482910,35.0038986206054700,358.1972961425781000,638.9094848632812000,5.4098949432373050,32.3018608093261700,12,3,50,153,62,2147636324,2147396429,2147297348,2148317727,1845,0,-4,18767
1341268561,6467,122.6399993896484400,5.4347000122070310,35.0043983459472660,358.1278991699219000,638.7562866210938000,5.4148559570312500,32.3015708923339840,16,3,50,127,62,2147639524,2147399734,2147296794,2148319268,1708,0,-4,34813
1341268622,6468,119.9599990844726600,5.4436001777648930,35.0043983459472660,357.8323059082031000,638.4727172851562000,5.4240379333496090,32.3059501647949200,16,3,51,140,62,2147637457,2147399076,2147295003,2148319396,1581,0,-4,5401
1341268685,6469,117.3300018310546900,5.4605998992919920,35.0047988891601560,357.4855957031250000,637.9611816406250000,5.4405980110168460,32.3081703186035160,16,3,50,121,62,2147636090,2147396369,2147297649,2148321466,1361,0,-4,27823
1341268746,6469,114.7799987792968800,5.4752998352050780,35.0052986145019500,357.2261047363281000,637.5535278320312000,5.4537978172302250,32.3093605041503900,14,3,50,130,62,2147635208,2147394907,2147298980,2148321929,1266,0,-4,60271
1341268809,6467,112.2799987792968800,5.4890999794006350,35.0056991577148440,356.9678039550781000,637.0982055664062000,5.4685339927673340,32.3096809387207000,15,3,53,147,62,2147634783,2147399565,2147301608,2148320434,1188,0,-4,1489
1341268870,6468,109.8600006103515600,5.5067000389099120,35.0056991577148440,356.8416137695312500,636.5062866210938000,5.4876880645751950,32.3031883239746100,16,3,52,200,62,2147634664,2147397677,2147300447,2148320867,986,0,-4,56974
1341268961,6469,105.5599975585937500,5.5478000640869140,35.0055999755859400,356.7206115722656000,635.3193969726562000,5.5260891914367680,32.2863998413085940,16,3,52,135,62,2147635697,2147398491,2147306513,2148321444,563,0,-4,454
1341269022,6467,101.8300018310546900,5.6027998924255370,35.0049018859863300,357.0524902343750000,633.6333007812500000,5.5806121826171875,32.2457199096679700,16,3,53,150,62,2147641097,2147401508,2147307784,2148321142,3582,0,-4,35864
1341269085,6468,97.9800033569336000,5.6276001930236820,35.0046997070312500,357.7732849121094000,632.5676879882812000,5.6150550842285160,32.2039108276367200,15,3,56,136,62,2147639034,2147397325,2147309366,2148323409,3371,0,-4,64284
1341269146,6468,94.2200012207031200,5.7041001319885250,35.0042991638183600,358.3888854980469000,630.1483764648438000,5.6932139396667480,32.1416587829589840,16,3,55,162,62,2147636662,2147400205,2147314532,2148322884,2956,0,-4,25622
1341269233,6466,89.4199981689453100,5.7695999145507810,35.0045013427734400,359.9869079589844000,628.4265747070312000,5.7487959861755370,32.0606498718261700,43,3,55,148,61,2147638307,2147403103,2147320401,2148322939,2629,0,-4,53921
1341269294,6468,86.6999969482421900,5.8064999580383300,35.0037994384765600,360.9461975097656000,627.2597045898438000,5.7864527702331540,32.0094108581543000,36,3,58,188,62,2147637745,2147403674,2147325074,2148328584,2516,0,-4,23103
1341269357,6469,84.0400009155273400,5.8270998001098630,35.0045013427734400,362.2449035644531000,626.6336059570312000,5.8066501617431640,31.9573307037353500,19,3,57,147,62,2147639295,2147403538,2147327354,2148327501,2282,0,-4,26166
1341269418,6467,81.3199996948242200,5.8640999794006350,35.0037994384765600,363.2019958496094000,625.5885009765625000,5.8403568267822270,31.9089603424072270,23,3,59,205,62,2147635016,2147406002,2147334801,2148325617,2182,0,-4,52437
1341269481,6468,78.5100021362304700,5.8845000267028810,35.0038986206054700,364.2492065429687500,624.8881835937500000,5.8629341125488280,31.8638896942138670,28,3,61,172,62,2147635158,2147410303,2147341823,2148327121,2220,0,-4,44297
1341269542,6466,75.7099990844726600,5.9155001640319820,35.0032005310058600,365.1480102539062500,623.7949829101562000,5.8981719017028810,31.8164596557617200,82,3,63,155,62,2147639135,2147408850,2147349178,2148327405,2173,0,-4,15991
1341269605,6468,72.7500000000000000,5.9380002021789550,35.0012016296386700,366.5728149414062500,623.2437133789062000,5.9159369468688965,31.7624206542968750,18,3,64,182,61,2147641398,2147413315,2147356863,2148331167,2050,0,-4,46356
1341269666,6469,69.9199981689453100,5.9454998970031740,34.9996986389160160,367.8919067382812500,622.9003295898438000,5.9270019531250000,31.7152690887451170,14,3,68,167,61,2147638253,2147413978,2147367757,2148335199,1852,0,-4,60074
1341269729,6469,66.9800033569336000,5.9674000740051270,34.9977989196777340,368.9258117675781000,622.2081909179688000,5.9492988586425780,31.6713294982910160,18,3,76,174,62,2147642413,2147418678,2147382322,2148331930,1895,0,-4,42392
1341269790,6503,64.2300033569336000,5.9977998733520510,34.9989013671875000,369.3088989257812500,621.3662719726562000,5.9764118194580080,31.6450099945068360,22,3,76,164,62,2147640703,2147426285,2147393233,2148337699,1801,0,-4,7637
1341269853,6468,61.2999992370605500,6.0118999481201170,34.9995994567871100,369.7998046875000000,620.8848266601562000,5.9919190406799320,31.6215400695800780,17,3,76,163,64,2147646976,2147431378,2147408690,2148341206,1701,0,-4,57075
1341269914,6468,58.4399986267089840,6.0303997993469240,35.0004997253418000,369.9045104980469000,620.3212890625000000,6.0100607872009280,31.6086692810058600,37,3,75,161,62,2147650934,2147438202,2147432662,2148347250,1634,0,-4,45095
1341269977,6469,55.4700012207031250,6.0550999641418460,35.0010986328125000,369.9158020019531000,619.5991210937500000,6.0333061218261720,31.5961093902587900,16,3,80,169,62,2147656352,2147446761,2147453046,2148353316,1486,0,-4,7944
1341270038,6469,52.5900001525878900,6.0683999061584470,35.0010986328125000,369.6279907226562500,619.1450805664062000,6.0479159355163570,31.5971603393554700,18,3,84,179,62,2147654687,2147460319,2147479848,2148358701,1393,0,-4,46116
1341270101,6467,49.7599983215332000,6.0728998184204100,35.0017013549804700,369.5411071777344000,618.9451904296875000,6.0543518066406250,31.5964107513427730,17,3,89,188,62,2147660337,2147472429,2147505211,2148366778,1331,0,-4,19040
1341270162,6469,47.0999984741210940,6.0921998023986820,35.0013999938964840,368.9566955566406000,618.3374023437500000,6.0739078521728520,31.6040992736816400,17,3,97,180,62,2147669859,2147488264,2147536369,2148379099,1264,0,-4,63074
1341270225,6469,44.4500007629394500,6.1170997619628910,35.0004005432128900,368.3020935058594000,617.6351928710938000,6.0964970588684080,31.6123104095459000,18,3,102,204,62,2147675972,2147506778,2147572932,2148384676,1163,0,-4,62426
1341270286,6470,42.1300010681152340,6.1374998092651370,35.0009002685546900,367.6705932617187500,616.9232177734375000,6.1193981170654300,31.6198005676269530,27,3,110,239,64,2147687222,2147514756,2147599894,2148395264,1043,0,-4,56370
1341270373,6469,38.5900001525878900,6.2392997741699220,34.9984016418457000,367.0291137695312500,613.8201293945312000,6.2191371917724610,31.5868492126464840,69,3,127,260,64,2147704685,2147555025,2147664521,2148415236,799,0,-4,51159
1341270434,6471,35.7099990844726560,6.4095997810363770,34.9942016601562500,367.6715087890625000,609.2656250000000000,6.3653597831726070,31.4893398284912100,31,3,197,305,64,2147727702,2147586879,2147724369,2148436251,231,0,-4,21629
1341270497,6470,33.0800018310546900,6.5696001052856445,34.9919013977050800,369.7226867675781000,603.7780761718750000,6.5412669181823730,31.3336505889892580,36,3,269,306,64,2147759743,2147631012,2147798756,2148460241,47,0,-4,21359
1341270558,6472,30.8799991607666000,6.8615999221801760,34.9852981567382800,372.2367858886719000,595.1730957031250000,6.8165259361267090,31.1133193969726560,51,3,414,417,65,2147794098,2147671272,2147874710,2148485101,2780,0,-4,5918
1341270647,6471,27.6499996185302730,7.2280998229980470,34.9799995422363300,381.0223083496094000,582.7410888671875000,7.2129750251770020,30.6461696624755860,90,3,532,739,64,2147922326,2147858728,2148142596,2148569549,2599,0,-4,36832
1341270708,6471,24.8400001525878900,7.4505000114440920,34.9842987060546900,389.0043945312500000,574.8413696289062000,7.4641609191894530,30.2863807678222660,138,3,549,806,64,2148130153,2148126418,2148500186,2148689261,2123,0,-5,26199
1341270771,6505,21.8500003814697270,7.8148999214172360,34.9757995605468750,399.1983032226562500,564.7344970703125000,7.7847161293029785,29.8381309509277340,125,3,510,903,64,2148452543,2148525887,2149012749,2148868676,1896,0,-3,57081
1341270832,6472,19.1800003051757800,8.1501998901367190,34.9733009338378900,406.4070129394531000,553.7191772460938000,8.1330776214599610,29.4684295654296880,139,3,473,892,62,2148813119,2148953128,2149516374,2149049736,1604,1,-2,14945
1341270895,6469,16.8700008392334000,8.3025999069213870,34.9751014709472660,412.1473999023437500,549.0509033203125000,8.2804069519042970,29.2421798706054700,116,3,456,853,62,2149324639,2149512790,2150129147,2149284771,1583,0,-4,55665
1341270956,6470,14.8000001907348630,8.4476995468139650,34.9728012084960940,414.1682128906250000,543.9138793945312000,8.4423198699951170,29.1101303100585940,111,3,438,793,62,2150018175,2150214285,2150786491,2149563153,1600,-1,-4,40204
1341271035,6469,12.6700000762939450,9.0903997421264650,34.9710998535156250,412.1495056152344000,524.0189819335938000,9.0673942565917970,28.8634700775146500,168,3,380,721,60,2150702874,2150918404,2151537261,2149863195,1809,1,-4,28693
1341271107,6469,11.5399999618530270,9.8914003372192380,34.9735984802246100,402.2369079589844000,497.7661132812500000,9.8876609802246100,28.7414302825927730,85,3,334,662,60,2151159336,2151363634,2151931857,2150038792,1577,0,-3,28974
1341271245,6471,8.9899997711181640,10.9961004257202150,34.9892997741699200,371.9042968750000000,462.4508056640625000,10.9836301803588870,29.0856609344482420,87,3,250,637,58,2152429846,2152654312,2153174239,2150663052,1421,1,-4,41135
1341271315,6471,5.0599999427795410,11.3515996932983400,34.9846000671386700,366.5837097167969000,448.7348022460937500,11.4071998596191400,29.0478992462158200,100,3,231,637,58,2154592260,2154872022,2155291195,2152053416,1183,4,-6,23207
1341271374,6470,2.7100000381469727,0.0000000000000000,0.0000000000000000,364.3268127441406000,443.3262939453125000,11.5739202499389650,29.0388298034667970,83,3,221,571,58,2155840196,2156107286,2156421974,2153226033,1418,-1,-4,23179
1341271408,6470,0.6000000238418579,0.0000000000000000,0.0000000000000000,355.9967041015625000,406.2424011230469000,12.7129402160644530,28.7754001617431640,84,3,225,641,58,2157731186,2158427619,2158309777,2155516630,282,2,3,45964
